Weather History for Fairbanks, AK

Change the Weather History Date:

Monday, November 19, 2012

  Actual Average Record
Temperature  
Mean Temperature -8 °F 0 °F  
Max Temperature 2 °F 9 °F 47 °F (1949)
Min Temperature -19 °F -8 °F -36 °F (2011)
Degree Days  
Heating Degree Days 73 65  
Month to date heating degree days 1301 1144  
Since 1 July heating degree days 3586 3403  
Cooling Degree Days 0 0  
Month to date cooling degree days 0 0  
Year to date cooling degree days 34 61  
Moisture  
Dew Point -15 °F    
Average Humidity 54    
Maximum Humidity 81    
Minimum Humidity 34    
Precipitation  
Precipitation 0.00 in 0.02 in 0.33 in (1964)
Month to date precipitation 0.29 0.44  
Year to date precipitation 9.43 9.94  
Snow  
Snow 0.00 in 0.50 in 9.70 in (1935)
Month to date snowfall 4.2 8.5  
Since 1 July snowfall 11.3 21.1  
Since 1 September snowfall 11.3 21.1  
Snow Depth 6.00 in    
Sea Level Pressure  
Sea Level Pressure 30.02 in    
Wind  
Wind Speed 9 mph (NNE)    
Max Wind Speed 18 mph    
Max Gust Speed -    
Visibility 10 miles    
Events      
T = Trace of Precipitation, MM = Missing Value Source: NWS Daily Summary

Daily Weather History Graph

Daily Weather History Graph

Search for Another Location

Airport:

Trip Planner

Search our weather history database for the weather conditions in past years. The results will help you decide how hot, cold, wet, or windy it might be!

Date:

Astronomy

Nov. 19, 2012 Rise Set
Actual Time 9:42 AM AKST 3:30 PM AKST
Civil Twilight 8:36 AM AKST 4:36 PM AKST
Nautical Twilight 7:32 AM AKST 5:40 PM AKST
Astronomical Twilight 6:34 AM AKST 6:38 PM AKST
Moon 1:45 PM AKST (11/19) 11:23 PM AKST (11/19)
Length of Visible Light 7h 59m
Length of Day
5h 48m
Waxing Crescent, 42% of the Moon is Illuminated
Nov 19
Waxing Crescent
Nov 20
First Quarter
Nov 28
Full
Dec 6
Last Quarter
Dec 12
New

Hourly Weather History & Observations

Time (AKST) Temp. Windchill Dew Point Humidity Pressure Visibility Wind Dir Wind Speed Gust Speed Precip Events Conditions
12:53 AM -18.9 °F -29.5 °F -23.1 °F 81% 29.95 in 10.0 mi NE 3.5 mph - N/A   Scattered Clouds
1:53 AM -16.1 °F -36.2 °F -23.1 °F 71% 29.96 in 10.0 mi NNE 10.4 mph - N/A   Scattered Clouds
2:53 AM -4.0 °F -22.1 °F -16.1 °F 56% 29.96 in 10.0 mi NNE 11.5 mph - N/A   Partly Cloudy
3:53 AM -5.1 °F -19.1 °F -18.0 °F 54% 29.97 in 10.0 mi NE 6.9 mph - N/A   Partly Cloudy
4:53 AM -5.1 °F -15.8 °F -18.0 °F 54% 29.98 in 10.0 mi NE 4.6 mph - N/A   Partly Cloudy
5:53 AM -6.0 °F -22.6 °F -18.0 °F 56% 30.00 in 10.0 mi NNE 9.2 mph - N/A   Partly Cloudy
6:53 AM -6.0 °F -18.6 °F -18.0 °F 56% 30.01 in 10.0 mi NE 5.8 mph - N/A   Partly Cloudy
7:53 AM -5.1 °F -23.5 °F -17.0 °F 57% 30.02 in 10.0 mi NE 11.5 mph - N/A   Clear
8:53 AM -5.1 °F -23.5 °F -17.0 °F 57% 30.04 in 10.0 mi NE 11.5 mph - N/A   Clear
9:53 AM -6.0 °F -21.5 °F -17.0 °F 59% 30.05 in 10.0 mi NE 8.1 mph - N/A   Clear
10:53 AM -4.0 °F -20.2 °F -16.1 °F 56% 30.06 in 10.0 mi NE 9.2 mph - N/A   Clear
11:53 AM -0.9 °F -18.3 °F -13.0 °F 57% 30.05 in 10.0 mi NE 11.5 mph - N/A   Clear
12:53 PM 1.9 °F -18.7 °F -11.9 °F 52% 30.06 in 10.0 mi NE 18.4 mph - N/A   Clear
1:53 PM -0.0 °F -16.3 °F -13.0 °F 54% 30.05 in 10.0 mi NNE 10.4 mph - N/A   Clear
2:53 PM -0.0 °F -20.1 °F -14.1 °F 52% 30.04 in 10.0 mi NNE 16.1 mph - N/A   Clear
3:53 PM -2.0 °F -20.5 °F -15.0 °F 54% 30.05 in 10.0 mi NNE 12.7 mph - N/A   Clear
4:53 PM -2.0 °F -20.5 °F -15.0 °F 54% 30.04 in 10.0 mi NNE 12.7 mph - N/A   Clear
5:53 PM -2.0 °F -19.6 °F -15.0 °F 54% 30.05 in 10.0 mi North 11.5 mph - N/A   Clear
6:53 PM -2.0 °F -19.6 °F -15.0 °F 54% 30.06 in 10.0 mi NNE 11.5 mph - N/A   Partly Cloudy
7:53 PM -0.9 °F -16.4 °F -13.0 °F 57% 30.06 in 10.0 mi NNE 9.2 mph - N/A   Scattered Clouds
8:53 PM 1.0 °F -14.0 °F -11.9 °F 55% 30.04 in 10.0 mi NNE 9.2 mph - N/A   Mostly Cloudy
9:53 PM 1.9 °F -11.8 °F -11.0 °F 55% 30.04 in 10.0 mi NNE 8.1 mph - N/A   Mostly Cloudy
10:53 PM 1.9 °F -11.8 °F -11.0 °F 55% 30.04 in 10.0 mi North 8.1 mph - N/A   Mostly Cloudy
11:53 PM 1.9 °F -12.9 °F -11.9 °F 52% 30.03 in 10.0 mi North 9.2 mph - N/A   Mostly Cloudy